Tracking 17884 objects as of 8-December-2016
HD Live streaming from Space Station
objects crossing your sky now

HELIOS-2A

Track HELIOS-2A now!
10-day predictions
HELIOS-2A is classified as:


NORAD ID: 28492
Int'l Code: 2004-049A
Perigee: 686.5 km
Apogee: 689.3 km
Inclination: 98.1 °
Period: 98.4 minutes
Semi major axis: 7058 km
RCS: Unknown
Launch date: December 18, 2004
Source: France (FR)
Launch site: FRENCH GUIANA (FRGUI)

Optical reconnaissance; independent military intelligence capability for the EU.
Your satellite tracking list
Your tracking list is empty





NASA's NSSDC Master Catalog

Two Line Element Set (TLE):
1 28492U 04049A   16280.11821614 0.00000000  00000-0  00000-0 0    06
2 28492  98.1275 213.9962 0002000 330.2637  29.7361 14.63848213    05
Source of the keplerian elements: McCants